Biloxi, MS

8:37 PM CDT on March 30, 2017 (GMT -0500)
Keesler Air Force Base

Weather History for KBIX - July, 2013

Change the Weather History Date:

Saturday, July 20, 2013

  Actual Average Record
Temperature  
Mean Temperature 80 °F -  
Max Temperature 87 °F 90 °F 98 °F (2000)
Min Temperature 74 °F 74 °F 68 °F (1967)
Cooling Degree Days 15    
Growing Degree Days 30 (Base 50)    
Moisture  
Dew Point 74 °F    
Average Humidity 84    
Maximum Humidity 97    
Minimum Humidity 67    
Precipitation  
Precipitation 0.00 in - - ()
Sea Level Pressure  
Sea Level Pressure 29.98 in    
Wind  
Wind Speed 6 mph (NNW)    
Max Wind Speed 16 mph    
Max Gust Speed 21 mph    
Visibility 8 miles    
Events      
Averages and records for this station are not official NWS values.
T = Trace of Precipitation, MM = Missing Value Source: NWS Daily Summary

Daily Weather History Graph

Daily Weather History Graph

Search for Another Location

Airport or City:

Trip Planner

Search our weather history database for the weather conditions in past years. The results will help you decide how hot, cold, wet, or windy it might be!

Date:

Astronomy

Jul. 20, 2013 Rise Set
Actual Time 6:06 AM CDT 7:56 PM CDT
Civil Twilight 5:40 AM CDT 8:23 PM CDT
Nautical Twilight 5:07 AM CDT 8:55 PM CDT
Astronomical Twilight 4:33 AM CDT 9:29 PM CDT
Moon 6:01 PM CDT (7/20) 3:46 AM CDT (7/20)
Length of Visible Light 14h 43m
Length of Day
13h 50m
Waxing Gibbous, 94% of the Moon is Illuminated
Jul 20
Waxing Gibbous
Jul 22
Full
Jul 29
Last Quarter
Aug 6
New
Aug 14
First Quarter

Hourly Weather History & Observations

Time (CDT) Temp. Heat Index Dew Point Humidity Pressure Visibility Wind Dir Wind Speed Gust Speed Precip Events Conditions
12:18 AM 77.0 °F - 73.4 °F 89% 29.99 in 10.0 mi North 3.5 mph - N/A   Mostly Cloudy
12:28 AM 75.2 °F - 73.4 °F 94% 29.98 in 10.0 mi NE 4.6 mph - N/A   Mostly Cloudy
12:38 AM 75.2 °F - 73.4 °F 94% 29.98 in 10.0 mi NE 5.8 mph - N/A   Scattered Clouds
12:58 AM 75.4 °F - 73.2 °F 93% 29.99 in 10.0 mi NE 4.6 mph - N/A   Partly Cloudy
1:58 AM 75.2 °F - 73.4 °F 94% 29.98 in 10.0 mi NE 4.6 mph - N/A   Clear
2:58 AM 75.0 °F - 73.6 °F 95% 29.97 in 10.0 mi NE 4.6 mph - N/A   Clear
3:58 AM 74.7 °F - 73.6 °F 96% 29.97 in 10.0 mi NNE 3.5 mph - N/A   Clear
4:58 AM 75.0 °F - 73.8 °F 96% 29.97 in 10.0 mi NE 4.6 mph - N/A   Mostly Cloudy
5:58 AM 74.7 °F - 73.4 °F 96% 29.98 in 10.0 mi North 4.6 mph - N/A   Partly Cloudy
6:13 AM 75.2 °F - 73.4 °F 94% 29.97 in 10.0 mi NE 4.6 mph - N/A   Mostly Cloudy
6:58 AM 74.5 °F - 73.6 °F 97% 30.00 in 10.0 mi NE 5.8 mph - N/A   Overcast
7:08 AM 75.2 °F - 73.4 °F 94% 29.99 in 2.5 mi NE 4.6 mph - N/A   Overcast
7:13 AM 75.2 °F - 73.4 °F 94% 29.99 in 1.2 mi NE 5.8 mph - N/A   Overcast
7:18 AM 75.2 °F - 73.4 °F 94% 29.99 in 1.0 mi NNE 3.5 mph - N/A   Mist
7:23 AM 75.2 °F - 73.4 °F 94% 29.99 in 1.2 mi NE 4.6 mph - N/A   Overcast
7:28 AM 75.2 °F - 73.4 °F 94% 29.98 in 2.5 mi NE 3.5 mph - N/A   Overcast
7:33 AM 75.2 °F - 73.4 °F 94% 29.99 in 4.0 mi NNE 3.5 mph - N/A   Overcast
7:43 AM 75.2 °F - 73.4 °F 94% 29.98 in 8.0 mi North 2.3 mph - N/A   Overcast
7:58 AM 75.7 °F - 74.8 °F 97% 29.99 in 10.0 mi NNE 2.3 mph - N/A   Mostly Cloudy
8:08 AM 77.0 °F - 75.2 °F 94% 29.99 in 10.0 mi North 3.5 mph - N/A   Scattered Clouds
8:58 AM 80.1 °F 85.7 °F 76.5 °F 89% 30.00 in 10.0 mi North 3.5 mph - N/A   Clear
9:58 AM 83.5 °F 91.6 °F 75.6 °F 77% 30.02 in 4.0 mi Variable 1.2 mph - N/A   Haze
10:03 AM 84.2 °F 92.3 °F 75.2 °F 74% 30.01 in 5.0 mi Variable 2.3 mph - N/A   Haze
10:58 AM 84.6 °F 91.7 °F 73.9 °F 70% 30.02 in 10.0 mi WSW 1.2 mph - N/A   Clear
11:58 AM 84.4 °F 93.1 °F 75.7 °F 75% 30.01 in 10.0 mi SSW 6.9 mph - N/A   Scattered Clouds
12:58 PM 86.5 °F 96.4 °F 75.9 °F 70% 30.00 in 10.0 mi SSW 13.8 mph - N/A   Clear
1:58 PM 86.4 °F 96.0 °F 75.6 °F 70% 29.98 in 10.0 mi SSW 10.4 mph - N/A   Scattered Clouds
2:58 PM 85.3 °F 92.2 °F 73.4 °F 67% 29.98 in 10.0 mi SW 9.2 mph - N/A   Partly Cloudy
3:58 PM 85.5 °F 93.8 °F 74.5 °F 70% 29.96 in 10.0 mi SW 11.5 mph - N/A   Partly Cloudy
4:58 PM 86.7 °F 96.9 °F 75.7 °F 70% 29.94 in 10.0 mi SW 13.8 mph - N/A   Partly Cloudy
5:33 PM 86.0 °F 95.1 °F 75.2 °F 70% 29.93 in 10.0 mi WSW 16.1 mph 20.7 mph N/A   Mostly Cloudy
5:43 PM 86.0 °F 95.1 °F 75.2 °F 70% 29.94 in 10.0 mi WSW 13.8 mph 19.6 mph N/A   Scattered Clouds
5:58 PM 85.5 °F 94.2 °F 75.0 °F 71% 29.95 in 10.0 mi WSW 12.7 mph - N/A   Scattered Clouds
6:58 PM 83.3 °F 89.9 °F 73.9 °F 73% 29.95 in 10.0 mi WSW 9.2 mph - N/A   Clear
7:58 PM 82.8 °F 89.2 °F 74.3 °F 75% 29.96 in 10.0 mi WSW 9.2 mph - N/A   Scattered Clouds
8:58 PM 81.7 °F 87.3 °F 73.9 °F 77% 29.97 in 10.0 mi SW 11.5 mph - N/A   Partly Cloudy
9:58 PM 81.5 °F 88.0 °F 75.4 °F 82% 29.99 in 10.0 mi SW 12.7 mph - N/A   Scattered Clouds
10:58 PM 81.5 °F 87.6 °F 74.8 °F 80% 30.01 in 10.0 mi SW 12.7 mph - N/A   Overcast
11:58 PM 81.1 °F 86.2 °F 73.2 °F 77% 30.01 in 10.0 mi WSW 6.9 mph - N/A   Overcast